Terminal Aerodrome Forecast
Issued by NWS Dodge City, KS

Home | Current Version | Previous Version | Graphics & Text | Print | Product List | Glossary Off
Versions: 1 2 3 4 5 6 7 8 9 10 11 12 13 14 15 16 17 18 19 20 21 22 23 24 25 26 27 28 29 30 31 32 33 34 35 36 37

000
FTUS43 KDDC 261846 AAA
TAFDDC
TAF AMD
KDDC 261846Z 2619/2718 01012G22KT P6SM -FZDZ BKN007
     FM262000 35011KT 4SM -SN OVC005
     FM262300 35011KT P6SM OVC010
     FM270400 35011KT P6SM OVC030=

USA.gov is the U.S. government's official web portal to all federal, state and local government web resources and services.